TimeCDT,TemperatureF,Dew PointF,Humidity,Sea Level PressureIn,VisibilityMPH,Wind Direction,Wind SpeedMPH,Gust SpeedMPH,PrecipitationIn,Events,Conditions,WindDirDegrees,DateUTC
12:14 AM,62.2,48.2,60,29.91,10.0,South,9.2,-,N/A,,Clear,170,2013-10-09 05:14:00
12:33 AM,62.1,48.2,60,29.91,10.0,South,9.2,-,N/A,,Clear,170,2013-10-09 05:33:00
12:53 AM,62.1,48.2,60,29.92,10.0,South,9.2,16.1,N/A,,Clear,180,2013-10-09 05:53:00
1:14 AM,62.1,48.2,60,29.92,10.0,South,9.2,16.1,N/A,,Clear,180,2013-10-09 06:14:00
1:33 AM,61.9,48.2,61,29.93,10.0,South,10.4,17.3,N/A,,Clear,180,2013-10-09 06:33:00
1:53 AM,61.7,48.2,61,29.94,10.0,South,10.4,17.3,N/A,,Clear,180,2013-10-09 06:53:00
2:14 AM,61.3,48.2,62,29.94,10.0,South,10.4,-,N/A,,Clear,180,2013-10-09 07:14:00
2:34 AM,60.8,48.2,63,29.94,10.0,South,6.9,-,N/A,,Clear,170,2013-10-09 07:34:00
2:53 AM,60.1,48.4,65,29.95,10.0,South,9.2,-,N/A,,Clear,170,2013-10-09 07:53:00
3:13 AM,59.0,48.4,68,29.95,10.0,South,8.1,-,N/A,,Clear,180,2013-10-09 08:13:00
3:34 AM,58.3,48.4,70,29.95,10.0,South,9.2,-,N/A,,Clear,170,2013-10-09 08:34:00
3:54 AM,58.1,48.2,70,29.95,10.0,South,9.2,-,N/A,,Clear,170,2013-10-09 08:54:00
4:13 AM,57.7,48.2,70,29.95,10.0,South,6.9,-,N/A,,Clear,170,2013-10-09 09:13:00
4:33 AM,57.2,48.2,72,29.95,10.0,South,5.8,-,N/A,,Clear,170,2013-10-09 09:33:00
4:54 AM,57.0,48.2,72,29.96,10.0,SSE,5.8,-,N/A,,Clear,160,2013-10-09 09:54:00
5:13 AM,56.3,48.2,74,29.96,10.0,South,6.9,-,N/A,,Clear,170,2013-10-09 10:13:00
5:34 AM,55.9,48.2,75,29.96,10.0,South,5.8,-,N/A,,Clear,170,2013-10-09 10:34:00
5:53 AM,55.6,48.2,76,29.97,10.0,South,4.6,-,N/A,,Clear,170,2013-10-09 10:53:00
6:13 AM,55.4,48.2,77,29.97,10.0,SSE,4.6,-,N/A,,Clear,160,2013-10-09 11:13:00
6:34 AM,54.9,48.2,78,29.98,10.0,South,4.6,-,N/A,,Clear,170,2013-10-09 11:34:00
6:53 AM,54.7,48.2,79,29.98,10.0,South,6.9,-,N/A,,Clear,170,2013-10-09 11:53:00
7:13 AM,54.7,48.4,79,29.99,10.0,South,6.9,-,N/A,,Clear,170,2013-10-09 12:13:00
7:34 AM,54.9,48.4,79,29.99,10.0,South,8.1,-,N/A,,Clear,170,2013-10-09 12:34:00
7:53 AM,55.4,48.4,77,29.99,10.0,South,5.8,-,N/A,,Clear,170,2013-10-09 12:53:00
8:13 AM,55.6,48.7,78,29.99,10.0,South,6.9,-,N/A,,Clear,170,2013-10-09 13:13:00
8:34 AM,55.6,49.1,79,30.00,10.0,South,6.9,-,N/A,,Clear,170,2013-10-09 13:34:00
8:53 AM,57.4,49.5,75,30.01,10.0,South,9.2,-,N/A,,Clear,180,2013-10-09 13:53:00
9:13 AM,59.2,49.8,71,30.01,10.0,South,8.1,-,N/A,,Clear,170,2013-10-09 14:13:00
9:34 AM,61.5,50.2,66,30.01,10.0,South,12.7,18.4,N/A,,Clear,190,2013-10-09 14:34:00
9:53 AM,61.7,50.0,65,30.01,10.0,South,10.4,16.1,N/A,,Clear,190,2013-10-09 14:53:00
10:14 AM,63.9,50.5,62,30.02,10.0,South,11.5,17.3,N/A,,Clear,190,2013-10-09 15:14:00
10:33 AM,65.5,50.7,59,30.02,10.0,SSW,10.4,16.1,N/A,,Clear,200,2013-10-09 15:33:00
11:13 AM,68.2,51.1,54,30.02,10.0,South,9.2,18.4,N/A,,Clear,190,2013-10-09 16:13:00
11:34 AM,69.3,51.3,53,30.02,10.0,SSW,10.4,17.3,N/A,,Clear,200,2013-10-09 16:34:00
11:53 AM,70.2,50.9,50,30.02,10.0,SSW,8.1,17.3,N/A,,Clear,200,2013-10-09 16:53:00
12:13 PM,70.7,51.1,50,30.02,10.0,South,8.1,-,N/A,,Clear,190,2013-10-09 17:13:00
12:34 PM,72.1,51.4,48,30.02,10.0,SSW,9.2,-,N/A,,Clear,200,2013-10-09 17:34:00
12:53 PM,72.5,51.8,48,30.02,10.0,South,5.8,-,N/A,,Clear,190,2013-10-09 17:53:00
1:14 PM,73.6,51.8,46,30.01,10.0,South,8.1,-,N/A,,Clear,170,2013-10-09 18:14:00
1:33 PM,73.6,51.8,46,30.01,10.0,SSE,6.9,-,N/A,,Clear,160,2013-10-09 18:33:00
1:53 PM,74.1,51.4,45,30.01,10.0,South,9.2,16.1,N/A,,Clear,170,2013-10-09 18:53:00
2:14 PM,74.5,52.0,45,30.00,10.0,SSE,5.8,-,N/A,,Clear,160,2013-10-09 19:14:00
2:33 PM,75.2,52.0,44,30.00,10.0,South,10.4,16.1,N/A,,Clear,170,2013-10-09 19:33:00
2:54 PM,75.6,51.6,43,30.00,10.0,SE,11.5,17.3,N/A,,Clear,140,2013-10-09 19:54:00
3:13 PM,76.1,52.5,44,29.99,10.0,South,9.2,17.3,N/A,,Clear,170,2013-10-09 20:13:00
3:33 PM,76.1,51.8,43,29.99,10.0,South,11.5,17.3,N/A,,Clear,170,2013-10-09 20:33:00
3:54 PM,76.6,52.7,43,29.99,10.0,SSE,10.4,16.1,N/A,,Clear,150,2013-10-09 20:54:00
4:13 PM,76.5,52.3,43,29.99,10.0,SE,12.7,20.7,N/A,,Clear,140,2013-10-09 21:13:00
4:33 PM,76.3,52.0,43,29.99,10.0,SSE,8.1,-,N/A,,Clear,160,2013-10-09 21:33:00
4:54 PM,76.1,51.4,42,29.98,10.0,SE,11.5,-,N/A,,Clear,140,2013-10-09 21:54:00
5:13 PM,75.7,51.1,42,29.98,10.0,SE,9.2,-,N/A,,Clear,140,2013-10-09 22:13:00
5:34 PM,75.2,51.1,43,29.98,10.0,SSE,6.9,17.3,N/A,,Clear,150,2013-10-09 22:34:00
5:54 PM,73.6,50.9,45,-9999,10.0,SSE,5.8,-,N/A,,Clear,150,2013-10-09 22:54:00
6:13 PM,72.5,49.5,44,29.98,10.0,SE,6.9,-,N/A,,Clear,140,2013-10-09 23:13:00
6:33 PM,70.5,48.6,46,29.98,10.0,SE,4.6,-,N/A,,Clear,140,2013-10-09 23:33:00
6:54 PM,68.9,47.8,47,29.98,10.0,SE,6.9,-,N/A,,Clear,140,2013-10-09 23:54:00
7:14 PM,65.3,47.7,53,29.99,10.0,SE,5.8,-,N/A,,Clear,140,2013-10-10 00:14:00
7:33 PM,64.0,47.7,55,29.99,10.0,SE,5.8,-,N/A,,Clear,130,2013-10-10 00:33:00
7:53 PM,62.8,48.2,59,29.99,10.0,SE,6.9,-,N/A,,Clear,130,2013-10-10 00:53:00
8:14 PM,62.1,48.2,60,29.99,10.0,SE,5.8,-,N/A,,Clear,130,2013-10-10 01:14:00
8:33 PM,59.4,48.2,67,30.00,10.0,SE,3.5,-,N/A,,Clear,130,2013-10-10 01:33:00
8:54 PM,59.0,48.4,68,30.00,10.0,SE,4.6,-,N/A,,Clear,130,2013-10-10 01:54:00
9:13 PM,58.5,48.4,69,30.00,10.0,SE,3.5,-,N/A,,Clear,130,2013-10-10 02:13:00
9:33 PM,57.6,48.6,72,30.01,10.0,SE,4.6,-,N/A,,Clear,130,2013-10-10 02:33:00
9:54 PM,58.6,48.7,70,30.01,10.0,SE,4.6,-,N/A,,Clear,140,2013-10-10 02:54:00
10:13 PM,57.9,49.1,72,30.02,10.0,SE,4.6,-,N/A,,Clear,140,2013-10-10 03:13:00
10:34 PM,57.2,48.7,73,30.02,10.0,SE,5.8,-,N/A,,Clear,140,2013-10-10 03:34:00
10:54 PM,57.9,48.6,71,30.02,10.0,SE,4.6,-,N/A,,Clear,140,2013-10-10 03:54:00
11:13 PM,57.4,48.6,72,30.02,10.0,SSE,3.5,-,N/A,,Clear,150,2013-10-10 04:13:00
11:34 PM,57.0,48.2,72,30.03,10.0,Calm,Calm,-,N/A,,Clear,0,2013-10-10 04:34:00
11:53 PM,55.8,47.8,75,30.03,10.0,Calm,Calm,-,N/A,,Clear,0,2013-10-10 04:53:00